www.pogodaiklimat.ru

Погода и климат >> Архив погоды >> Великобритания >> Бенсон


ПОГОДА в Бенсоне

  • Прогноз погоды в Бенсоне
  • Монитор погоды в Бенсоне

АРХИВ ПОГОДЫ в Бенсоне

Время (UTC), дата Ветер
(напр.,м/с)
 
Видим.   Явления Облачность Т
(С)
Тd
(С)
f
(%)
Тe
(С)
Тes
(С)
Комфортность P
(гПа)
Po
(гПа)
Тmin
(С)
Tmax
(С)
R
(мм)
R24
(мм)
S
(см)
10 10.08 ЮЗ 13-18
{21}
25 км н/о +18.9 +12.8 68 +19 +19 1001.7 995.1
11 10.08 ЮЗ 13-21
{21}
17 км н/о +18.6 +13.0 70 +18 +18 1002.6 996.0
12 10.08 ЮЗ 12-17
{20}
24 км н/о +20.6 +13.6 64 +22 +22 комфорт 1003.1 996.5
13 10.08 ЮЗ 12-17
{20}
26 км н/о +21.1 +12.8 59 +23 +23 комфорт 1003.7 997.1
14 10.08 ЮЗ 10-17
{19}
30 км н/о +21.4 +12.2 56 +24 +24 комфорт 1004.4 997.8
15 10.08 ЮЗ 10-17
{18}
30 км н/о +19.1 +12.0 63 +19 +19 1006.0 999.4
16 10.08 ЮЗ 10-15
{19}
28 км н/о +20.9 +11.1 53 +22 +22 комфорт 1006.1 999.5
17 10.08 ЮЗ 9
{19}
35 км н/о +19.3 +12.3 64 +20 +20 1007.3 1000.6
18 10.08 ЮЗ 8-13
{15}
30 км н/о +20.0 +12.3 61 +21 +21 комфорт 1007.5 1000.9 +23.4
19 10.08 ЮЗ 8-13
{14}
26 км н/о +18.3 +13.0 71 +18 +18 1008.5 1001.8
20 10.08 ЮЗ 7
{14}
24 км н/о +17.2 +12.9 76 +16 +16 1009.2 1002.4
21 10.08 Ю 7 22 км н/о +16.4 +12.6 78 +15 +15 1009.9 1003.1
22 10.08 Ю 7 23 км н/о +15.9 +12.6 81 +14 +14 1010.1 1003.4
23 10.08 ЮЗ 7 23 км н/о +15.5 +12.1 80 +14 +14 1010.2 1003.4
00 11.08 Ю 6
{13}
23 км н/о +15.2 +11.8 80 +14 +14 1010.2 1003.4
01 11.08 Ю 6 22 км н/о +14.9 +11.9 82 +13 +13 1010.1 1003.3
02 11.08 Ю 5 22 км н/о +14.7 +11.9 83 +13 +13 1009.9 1003.1
03 11.08 Ю 6 25 км н/о +14.5 +11.5 82 +13 +13 1010.1 1003.3
04 11.08 Ю 5 22 км н/о +14.0 +11.6 85 +12 +12 1010.0 1003.2
05 11.08 Ю 6 20 км н/о +13.6 +11.9 89 +11 +11 1009.8 1002.9
06 11.08 Ю 6 22 км н/о +14.7 +12.2 85 +13 +13 1009.8 1003.0 +13.5
07 11.08 ЮЗ 7 26 км н/о +16.4 +11.9 75 +15 +15 1010.1 1003.4
08 11.08 ЮЗ 8 27 км н/о +17.2 +11.1 67 +16 +16 1010.3 1003.6
09 11.08 ЮЗ 8
{13}
30 км н/о +18.3 +10.5 60 +18 +18 1010.1 1003.4
10 11.08 ЮЗ 8 30 км н/о +20.0 +10.9 56 +21 +21 комфорт 1010.4 1003.7
11 11.08 ЮЗ 7 35 км н/о +20.0 +10.4 54 +21 +21 комфорт 1010.6 1003.9
12 11.08 ЮЗ 6 35 км н/о +20.4 +9.9 51 +22 +22 комфорт 1010.8 1004.1
13 11.08 ЮЗ 8 35 км н/о +22.6 +10.2 45 +24 +24 комфорт 1009.8 1003.2
14 11.08 ЮЗ 7 30 км н/о +21.6 +10.5 49 +23 +23 комфорт 1009.8 1003.1
15 11.08 З 7 29 км н/о +20.4 +12.3 60 +22 +22 комфорт 1009.9 1003.3
16 11.08 З 6 35 км н/о +21.0 +11.0 53 +23 +23 комфорт 1010.3 1003.6
17 11.08 ЮЗ 7 40 км н/о +20.4 +11.9 58 +22 +22 комфорт 1010.4 1003.7
18 11.08 ЮЗ 6 35 км н/о +19.1 +12.1 64 +20 +20 1011.0 1004.3 +25.2
19 11.08 З 6 35 км н/о +17.2 +11.0 67 +16 +16 1011.8 1005.1
20 11.08 ЮЗ 2 24 км н/о +15.1 +12.5 84 +15 +15 1012.6 1005.8
21 11.08 Ю 2 7000 м н/о +14.1 +12.6 91 +13 +13 1012.8 1006.0
22 11.08 Ю 2 35 км н/о +14.3 +13.6 96 +14 +14 1013.2 1006.3
23 11.08 Ю 2 30 км н/о +13.3 +12.8 97 +12 +12 1013.1 1006.3
00 12.08 Ю 2 30 км н/о +12.8 +12.7 99 +12 +12 1013.3 1006.5 0.6
01 12.08 С 1 17 км н/о +12.4 +12.3 99 +13 +13 1013.5 1006.6
02 12.08 штиль 0 16 км н/о +12.7 +12.7 100 +12 +12 1013.2 1006.4
03 12.08 Ю 2 11 км н/о +12.5 +12.5 100 +11 +11 1013.3 1006.5
04 12.08 Ю 1 12 км н/о +12.6 +12.5 99 +12 +12 1013.6 1006.7
05 12.08 штиль 0 13 км н/о +12.7 +12.7 100 +12 +12 1013.6 1006.7
06 12.08 ЮЗ 1 10 км слаб. дождь 9/9 60 м
[Sc]
+12.8 +12.8 100 +13 +14 1013.7 1006.8 +11.9 0.8
07 12.08 З 1 15 км слаб. дождь 9/9 90 м
[Sc]
+13.7 +12.6 93 +14 +14 1014.1 1007.2
08 12.08 ЮВ 1 25 км в посл. час дождь 8/8 450 м
[Cu Sc]
+14.9 +11.2 79 +16 +17 1014.4 1007.6
09 12.08 З 1 25 км {дождь} 8/6 330 м
[Cu Sc Ac trans]
+17.1 +11.7 71 +18 +21 1014.6 1007.8
10 12.08 СЗ 3 30 км н/о +16.9 +10.3 65 +17 +17 1014.7 1007.9
11 12.08 СЗ 3 30 км 9/9 900 м
[Cu Sc]
+16.5 +10.4 67 +16 +17 1014.6 1007.8
12 12.08 СЗ 2 30 км {дождь} 9/9 1020 м
[Cu Sc]
+20.0 +9.0 49 +22 +23 комфорт 1014.3 1007.6 0.6
13 12.08 З 6 30 км 9/8 1200 м
[Cu Sc Ci fib]
+18.3 +7.6 50 +18 +19 1014.3 1007.5
14 12.08 СЗ 3 35 км 9/8 1320 м
[Cu Sc Ci fib]
+19.1 +7.6 47 +20 +22 1014.6 1007.9
15 12.08 СЗ 4 35 км 8/6 1500 м
[Sc diur, vesp Ci fib]
+18.9 +6.1 43 +19 +22 1014.5 1007.7
16 12.08 З 5 35 км 8/5 1500 м
[Sc diur, vesp Ac trans Ci fib]
+18.6 +5.7 43 +19 +20 1014.7 1008.0
17 12.08 З 5 35 км 4/4 1500 м
[Cu med, cong]
+18.8 +5.0 40 +19 +20 1014.9 1008.1
18 12.08 СЗ 4 35 км 6/6 1500 м
[Cu Sc Ac trans]
+18.2 +5.8 44 +18 +18 1015.4 1008.6 +22.9 0.6
19 12.08 З 2 35 км 6/1 1500 м
[Cu med, cong Ac trans]
+17.0 +6.1 49 +17 +17 1015.9 1009.1
20 12.08 З 2 35 км в посл. час ливневой дождь 5/3 1500 м
[Cu med, cong Ac trans]
+14.5 +7.9 65 +15 +15 1016.6 1009.8
21 12.08 ЮЗ 3 35 км {ливн. осадки} 3/1 1500 м
[Cu hum Ac trans]
+13.9 +8.6 70 +13 +13 1017.3 1010.4
22 12.08 З 4 35 км 1/0
[Ac trans]
+13.0 +8.6 75 +11 +11 1017.5 1010.6
23 12.08 ЮЗ 3 35 км 6/0
[Ac trans]
+12.3 +9.0 80 +11 +11 1017.7 1010.8
00 13.08 Ю 2 40 км н/о +10.0 +8.0 87 +8 +8 1017.7 1010.7 0.0
01 13.08 Ю 2 45 км н/о +10.4 +8.4 87 +9 +9 1017.4 1010.5
02 13.08 Ю 3 55 км н/о +8.2 +7.2 93 +5 +5 1017.5 1010.5
03 13.08 Ю 2 45 км н/о +9.1 +8.0 93 +8 +8 1017.3 1010.3
04 13.08 Ю 2 40 км н/о +8.1 +7.8 98 +6 +6 1017.2 1010.1
05 13.08 ЮВ 2 24 км н/о +7.6 +7.1 97 +5 +5 1017.4 1010.4
06 13.08 Ю 2 30 км 3/1 2000 м
[Sc Ci fib]
+10.3 +9.5 95 +9 +9 1017.7 1010.7 +6.6 0.0
07 13.08 Ю 1 30 км 4/0
[Ac trans Ci fib]
+11.9 +9.6 86 +12 +14 1018.0 1011.1
08 13.08 З 3 35 км 1/0
[Ci fib]
+15.3 +9.7 69 +15 +19 1018.1 1011.2
09 13.08 СЗ 4 35 км 1/1 1020 м
[Cu hum]
+16.8 +8.1 56 +16 +22 1018.1 1011.3
10 13.08 З 3 40 км 1/1 1200 м
[Cu med, cong]
+18.8 +7.1 46 +19 +27 1018.0 1011.2
11 13.08 З 4 40 км 4/4 1320 м
[Cu med, cong]
+18.7 +7.3 47 +19 +25 1017.9 1011.1
12 13.08 З 5 40 км 4/4 1350 м
[Cu med, cong]
+18.3 +6.9 47 +18 +22 1017.8 1011.0
13 13.08 З 4 45 км 4/4 1500 м
[Cu med, cong]
+19.1 +5.7 41 +19 +25 1017.4 1010.6
14 13.08 З 5 45 км 4/4 1500 м
[Cu hum]
+19.8 +4.2 36 +20 +24 1017.0 1010.3
15 13.08 З 4 45 км 4/4 1500 м
[Sc diur, vesp]
+20.9 +6.3 39 +22 +25 комфорт 1016.7 1010.0
16 13.08 З 6 40 км 4/3 1500 м
[Sc diur, vesp Ci fib]
+20.8 +5.7 37 +21 +23 комфорт 1016.7 1010.0
17 13.08 З 5 40 км 4/3 1500 м
[Sc diur, vesp Ac trans Ci fib]
+19.9 +5.2 38 +20 +21 1016.6 1009.9
18 13.08 З 5 40 км 1/1 1500 м
[Sc diur, vesp Ac trans Ci fib]
+19.8 +6.5 42 +20 +21 1016.7 1010.0 +21.8
19 13.08 З 4 35 км 6/3 1500 м
[Sc diur, vesp Ac trans Cs]
+18.5 +7.4 48 +19 +19 1017.1 1010.3
20 13.08 ЮЗ 2 25 км 8/1 1500 м
[Sc diur, vesp Ac As Cs]
+16.5 +7.6 56 +17 +17 1017.3 1010.5
21 13.08 ЮЗ 3 30 км 8/0
[Ac trans Cs]
+14.6 +10.5 76 +14 +14 1017.4 1010.6
22 13.08 ЮЗ 3 30 км 9/0
[Ac trans Cs]
+14.0 +10.6 80 +13 +13 1017.3 1010.5
23 13.08 Ю 3 35 км н/о +12.1 +9.9 86 +11 +11 1017.5 1010.5
00 14.08 Ю 3 40 км н/о +12.3 +10.6 89 +11 +11 1017.2 1010.3
01 14.08 Ю 3 35 км н/о +13.0 +11.1 88 +12 +12 1016.8 1009.9
02 14.08 Ю 3 35 км н/о +12.7 +11.0 89 +11 +11 1016.6 1009.7
03 14.08 Ю 3 28 км н/о +12.4 +11.5 94 +11 +11 1016.0 1009.1
04 14.08 Ю 4 24 км н/о +13.5 +12.8 96 +12 +12 1015.4 1008.6
05 14.08 Ю 4 17 км н/о +13.3 +12.6 96 +12 +12 1015.1 1008.3
06 14.08 Ю 4 15 км 9/5 540 м
[Sc Ac trans]
+14.4 +13.5 94 +13 +13 1014.7 1007.9 +11.9
07 14.08 Ю 5 12 км дождь 10/10 500 м
[Sc]
+14.3 +13.7 96 +13 +13 1014.4 1007.5
08 14.08 Ю 6 7000 м дождь 10/10 360 м
[Sc]
+14.6 +13.9 96 +13 +13 1013.8 1007.0
09 14.08 Ю 6 4000 м дождь {морось} 10/10 240 м
[St]
+14.5 +13.7 95 +13 +13 1013.4 1006.5
10 14.08 Ю 7 5000 м слаб. дождь 10/10 300 м
[Sc]
+14.1 +13.1 94 +12 +12 1012.6 1005.8
11 14.08 Ю 9 12 км слаб. дождь 10/10 270 м
[Sc]
+14.3 +13.5 95 +12 +12 1011.5 1004.7
12 14.08 Ю 9
{13}
15 км слаб. дождь {морось} 10/10 270 м
[St]
+14.7 +14.0 96 +12 +12 1011.0 1004.2 11
13 14.08 Ю 8
{14}
12 км слаб. морось 10/10 210 м
[St]
+16.1 +15.3 95 +14 +14 1010.3 1003.6
14 14.08 Ю 7 12 км слаб. морось 10/10 240 м
[Sc]
+16.4 +15.3 93 +15 +15 1009.7 1002.9
15 14.08 Ю 7 10 км дождь {морось} 10/10 240 м
[Sc]
+16.5 +15.7 95 +15 +15 1009.1 1002.4
16 14.08 Ю 7 10 км дождь {морось} 10/10 240 м
[Frnb]
+16.7 +15.6 93 +15 +15 1008.3 1001.6
17 14.08 Ю 6 20 км в посл. час морось 10/10 270 м
[St]
+16.9 +15.6 92 +16 +16 1007.8 1001.1
18 14.08 Ю 5 15 км {дождь, морось} 10/10 180 м
[St]
+17.2 +15.8 91 +17 +17 1007.6 1000.9 +17.4 11
19 14.08 Ю 3 4000 м дождь {морось} 10/10 180 м
[Frnb]
+17.1 +16.2 94 +17 +17 1007.4 1000.6
20 14.08 Ю 3 30 км н/о +17.0 +16.5 97 +17 +17 1007.4 1000.7
21 14.08 ЮЗ 3 30 км н/о +17.1 +15.3 89 +17 +17 1007.6 1000.8
22 14.08 ЮЗ 4 24 км н/о +16.8 +15.3 91 +16 +16 1007.4 1000.7
23 14.08 ЮЗ 3 28 км н/о +17.0 +15.5 91 +17 +17 1007.8 1001.1
00 15.08 ЮЗ 4 27 км н/о +17.0 +15.6 91 +16 +16 1007.9 1001.2 0.4
01 15.08 ЮЗ 5 26 км н/о +17.0 +15.2 89 +16 +16 1007.9 1001.2
02 15.08 ЮЗ 3 30 км н/о +15.6 +13.5 87 +15 +15 1008.3 1001.5
03 15.08 ЮЗ 4 30 км н/о +14.8 +13.0 89 +14 +14 1008.4 1001.6
04 15.08 ЮЗ 3 26 км н/о +13.6 +12.3 92 +12 +12 1008.4 1001.6
05 15.08 ЮЗ 4 19 км н/о +15.3 +13.6 90 +14 +14 1008.9 1002.1
06 15.08 ЮЗ 5 20 км 6/6 1350 м
[Sc]
+15.8 +13.3 85 +15 +15 1009.4 1002.6 +13.6 0.4
07 15.08 З 6 25 км 3/1 1500 м
[Sc Ci fib]
+16.3 +12.9 80 +15 +16 1009.7 1003.0
08 15.08 З 7 30 км 1/1 600 м
[Cu hum]
+17.2 +12.2 72 +16 +18 1010.5 1003.7
09 15.08 З 7 40 км 4/3 900 м
[Cu hum Ac trans Ci fib]
+18.0 +12.0 68 +17 +19 1011.0 1004.3
10 15.08 З 9
{13}
40 км 5/5 960 м
[Cu hum]
+19.3 +11.3 60 +20 +20 1011.4 1004.7
11 15.08 З 7 40 км 5/5 1020 м
[Cu med, cong]
+19.3 +11.6 61 +20 +21 1012.2 1005.5
12 15.08 З 8 40 км 5/5 1200 м
[Cu med, cong]
+20.5 +10.5 53 +22 +23 комфорт 1012.7 1006.0
13 15.08 З 8 40 км 4/4 1350 м
[Cu hum]
+20.8 +9.8 49 +22 +24 комфорт 1013.2 1006.5
14 15.08 З 6
{13}
40 км 4/4 1320 м
[Sc diur, vesp Ci fib]
+20.4 +9.6 50 +22 +24 комфорт 1013.8 1007.1
15 15.08 З 7 35 км 6/3 1500 м
[Sc diur, vesp Ci fib]
+20.5 +9.2 48 +22 +23 комфорт 1013.9 1007.2
16 15.08 З 6 35 км 9/3 1500 м
[Sc diur, vesp Cs]
+20.1 +9.5 50 +21 +23 комфорт 1014.5 1007.8
17 15.08 З 6 29 км н/о +19.4 +9.4 52 +20 +20 1015.4 1008.7
18 15.08 З 4 30 км н/о +19.6 +9.6 52 +21 +21 комфорт 1015.9 1009.2 +21.7
19 15.08 СЗ 3 30 км н/о +18.0 +9.6 58 +18 +18 1016.1 1009.3
20 15.08 СЗ 2 30 км н/о +15.7 +9.5 67 +16 +16 1016.7 1009.9
21 15.08 ЮВ 1 35 км н/о +13.1 +9.6 79 +13 +13 1017.2 1010.3
22 15.08 Ю 3 40 км н/о +11.3 +8.7 84 +10 +10 1017.5 1010.5
23 15.08 Ю 3 30 км н/о +11.7 +10.3 91 +10 +10 1017.4 1010.5
00 16.08 Ю 3 29 км н/о +12.1 +11.4 95 +11 +11 1016.9 1010.0
01 16.08 Ю 2 27 км н/о +11.3 +10.3 94 +10 +10 1016.7 1009.8
02 16.08 Ю 2 21 км н/о +11.8 +11.4 97 +11 +11 1016.2 1009.3
03 16.08 Ю 2 24 км н/о +12.1 +11.9 99 +11 +11 1015.7 1008.8
04 16.08 Ю 4 27 км н/о +13.0 +12.2 95 +11 +11 1015.3 1008.5
05 16.08 Ю 4 22 км н/о +13.3 +12.2 93 +11 +11 1014.8 1008.0
06 16.08 Ю 4 25 км 9/9 1350 м
[Sc]
+13.6 +12.7 94 +12 +12 1014.2 1007.4 +10.8
07 16.08 Ю 5 20 км 10/10 1320 м
[Sc]
+14.9 +13.6 92 +13 +13 1013.8 1007.0
08 16.08 Ю 6 25 км 10/10 360 м
[Cu Sc]
+16.3 +13.9 86 +15 +15 1013.2 1006.4
09 16.08 Ю 6 20 км слаб. дождь 10/10 540 м
[Sc]
+16.4 +13.5 83 +15 +15 1012.7 1005.9
10 16.08 Ю 8 20 км слаб. дождь 10/10 700 м
[Sc]
+17.2 +12.4 73 +16 +16 1011.6 1004.8
11 16.08 Ю 8 20 км слаб. дождь 10/10 840 м
[Sc]
+16.5 +13.2 81 +15 +15 1010.9 1004.2
12 16.08 Ю 7 12 км дождь 10/10 660 м
[Sc]
+15.9 +13.6 86 +14 +14 1010.7 1003.9 0.6
13 16.08 Ю 7 10 км слаб. дождь {морось} 10/10 600 м
[Sc]
+15.6 +14.3 92 +14 +14 1009.5 1002.8
14 16.08 Ю 8 10 км дождь {морось} 10/10 400 м
[St]
+15.9 +14.2 90 +14 +14 1008.9 1002.1
15 16.08 Ю 8
{13}
10 км дождь {морось} 10/10 300 м
[St]
+15.7 +14.9 95 +14 +14 1008.3 1001.5
16 16.08 Ю 8-13
{13}
8000 м дождь {морось} 10/10 300 м
[Sc]
+15.8 +14.8 94 +14 +14 1007.1 1000.4
17 16.08 Ю 8-14
{14}
16 км н/о +16.0 +15.1 94 +14 +14 1006.1 999.3
18 16.08 Ю 9
{16}
6000 м н/о +16.1 +15.4 96 +14 +14 1005.1 998.4 +17.4 5
19 16.08 Ю 9
{13}
15 км н/о +16.2 +15.5 96 +14 +14 1004.4 997.7
20 16.08 Ю 8 11 км н/о +16.3 +15.7 96 +15 +15 1003.9 997.2
21 16.08 Ю 6 10 км н/о +16.5 +16.0 97 +15 +15 1003.7 997.0
22 16.08 Ю 5 18 км н/о +16.5 +16.1 97 +16 +16 1003.2 996.5
23 16.08 Ю 5 40 км н/о +17.1 +16.3 95 +16 +16 1002.9 996.2
00 17.08 Ю 4 35 км н/о +17.3 +16.5 95 +17 +17 1002.7 996.0 3
01 17.08 ЮЗ 3 30 км н/о +17.2 +16.6 96 +17 +17 1002.7 996.0
02 17.08 З 4 30 км н/о +17.0 +15.6 91 +16 +16 1002.9 996.2
03 17.08 ЮЗ 3 27 км н/о +15.0 +13.0 88 +14 +14 1003.4 996.6
05 17.08 Ю 4 21 км н/о +13.8 +12.8 94 +12 +12 1003.5 996.7
06 17.08 Ю 5 19 км н/о +14.1 +12.8 92 +12 +12 1003.9 997.1 +11.9 3
07 17.08 ЮЗ 4 22 км 1/1 300 м
[St Ci fib]
+15.3 +13.3 88 +14 +15 1004.2 997.5
08 17.08 ЮЗ 7 25 км 1/1 450 м
[Cu Sc Ci fib]
+16.5 +13.3 81 +15 +17 1004.3 997.5
09 17.08 ЮЗ 7 20 км 9/9 600 м
[Cu Sc]
+18.0 +13.6 75 +17 +17 1004.4 997.7
10 17.08 ЮЗ 7
{14}
20 км осадки на расстоянии 9/9 630 м
[Cu Sc]
+18.6 +13.7 73 +19 +19 1004.8 998.1

 

Местоположение метеостанции Бенсон (Великобритания): широта 51.62 долгота -1.08 высота над уровнем моря 57 м.

В архиве по умолчанию представлена погода в Бенсоне за последнюю неделю. Архивные данные за месяц целиком и за предыдущие месяцы, начиная с января 2011 года, Вы можете получить, выбрав интересующий диапазон дат из раскрывающегося списка и нажав кнопку "Ввод!".


*Определитесь, кто Вы:
робот инопланетянин человек

Внимание! Время в таблицах - всемирное. Для получения местного времени необходимо прибавить поправку, которая равна 0 ч.

Смотрите также архив погоды в соседних городах и на ближайших метеорологических станциях:

Погода в Хай-Уикоме (Великобритания) (20 км)
Погода на Авиабазе Brize Norton (Великобритания) (37 км)
Погода в Фарнборо (Великобритания) (43 км)
Погода в Одихеме (Великобритания) (44 км)
Погода в Лондоне (Великобритания) (46 км)
Погода в Норхолте (Великобритания) (46 км)
Погода в Литл Ризсингтон (Великобритания) (50 км)
Погода в Мидл Уоллоп (Великобритания) (62 км)
Погода в Линхеме (Великобритания) (64 км)
Погода в Чарлвуде (Великобритания) (65 км)

Пояснения к столбцам:

Ветер - указаны скорость ветра в м/с - средняя за 10 мин, порывы в срок и между сроками (в фигурных скобках) и направление, откуда дует ветер: С - северный, СВ - северо-восточный, В - восточный, ЮВ - юго-восточный, Ю - южный, ЮЗ - юго-западный, З - западный, СЗ - северо-западный.
Видимость - горизонтальная дальность видимости в метрах или километрах. При видимости от 1 до 10 км при отсутствии осадков обычно наблюдается дымка, при ухудшении видимости до 1 км и менее - туман. В сухую погоду видимость может ухудшаться дымом, пылью или мглою.
Явления - указаны атмосферные явления, наблюдавшиеся в срок или в последний час перед сроком; фигурными скобками обозначены явления, наблюдавшиеся между сроками (за 1-3 часа до срока); квадратными скобками обозначены град или гололедные отложения с указанием их диаметра в мм.
Облачность - указаны через наклонную черту общая и нижняя облачность в баллах и высота нижней границы облаков в метрах; квадратными скобками обозначены формы облаков: Ci - перистые, Cs - перисто-слоистые, Cc - перисто-кучевые, Ac - высококучевые, As - высокослоистые, Sc - слоисто-кучевые, Ns - слоисто-дождевые, Cu - кучевые, Cb - кучево-дождевые. Подробнее классификацию облаков см. в Атласе облаков (PDF).
T - Температура воздуха - температура, измеренная на высоте 2 м над землей.
Td - Температура точки росы - температура, при понижении до которой содержащийся в воздухе водяной пар достигнет насыщения.
f - Относительная влажность воздуха - влажноcть воздуха, измеренная на высоте 2 м над землей.
Te - Эффективная температура - температура, которую ощущает одетый по сезону человек в тени. Характеристика душности погоды. При расчете учитывается влияние влажности воздуха и скорости ветра на теплоощущения человека.
Tes - Эффективная температура на солнце - температура, которую ощущает человек, с поправкой на солнечный нагрев. Характеристика знойности погоды. Зависит от высоты солнца над горизонтом, облачности и скорости ветра. Ночью, в пасмурную погоду, а также при ветре 12 м/с и более поправка равна нулю.
P - Атмосферное давление - приведенное к уровню моря атмосферное давление.
Po - Атмосферное давление - измеренное на уровне метеостанции атмосферное давление.
Tmin - Минимальная температура - минимум температуры воздуха на высоте 2 м над землей.
Tmax - Максимальная температура - максимум температуры воздуха на высоте 2 м над землей.
R - Количество осадков - Количество выпавших осадков за период времени, мм. При наведении курсора мыши на число - период времени, за который выпало указанное количество осадков.
R24 - Количество осадков - Количество выпавших осадков за 24 часа, мм.
S - Снежный покров - Высота снежного покрова, см. При наведении курсора мыши на число - состояние снежного покрова и степень покрытия местности в баллах.